Regional Weather Roundup
Issued by NWS Green Bay, WI

Home | Current Version | Previous Version | Graphics & Text | Print | Product List | Glossary Off
Versions: 1 2 3 4 5 6 7 8 9 10 11 12 13 14 15 16 17 18 19 20 21 22 23 24 25 26 27 28 29 30 31 32 33 34 35 36 37 38 39 40 41 42 43 44 45 46 47 48 49 50

000
ASUS43 KGRB 031459
RWRGRB

NORTH-CENTRAL AND NORTHEAST WISCONSIN REGIONAL WEATHER ROUNDUP
NATIONAL WEATHER SERVICE GREEN BAY WI
1000 AM CDT SUN MAY 03 2015

WIZ005-009-010>012-018-019-031600-
NORTH CENTRAL WISCONSIN

CITY           SKY/WX    TMP DP  RH WIND       PRES   REMARKS
IRONWOOD       MOSUNNY   66  52  59 SW9       29.73R
MANITOWISH WTR NOT AVBL
ARBOR VITAE    NOT AVBL
EAGLE RIVER    NOT AVBL
LAND O LAKES   NOT AVBL
RHINELANDER    MOSUNNY   65  50  58 SW12G18   29.83F
PHILLIPS       NOT AVBL
ANTIGO         NOT AVBL
TOMAHAWK       NOT AVBL
MERRILL        NOT AVBL
$$

WIZ013-073-031600-
NORTHEAST WISCONSIN

CITY           SKY/WX    TMP DP  RH WIND       PRES   REMARKS
IRON MOUNTAIN  SUNNY     70  49  47 SW10G21   29.81F
MARINETTE      SUNNY     70  50  49 SW10G16   29.85F
$$

WIZ017-030-035>037-045-031600-
CENTRAL WISCONSIN

CITY           SKY/WX    TMP DP  RH WIND       PRES   REMARKS
MEDFORD        NOT AVBL
WAUSAU         PTSUNNY   66  50  56 SW10      29.84F
MOSINEE        MOSUNNY   64  52  63 SW10      29.87S
MARSHFIELD     PTSUNNY   68  50  52 SW12      29.85F
WISC RAPIDS    PTSUNNY   68  47  46 S12       29.87S
STEVENS POINT  NOT AVBL
WAUPACA        NOT AVBL
SHAWANO        NOT AVBL
CLINTONVILLE   NOT AVBL
$$

WIZ038-039-048-051-031600-
FOX VALLEY

CITY           SKY/WX    TMP DP  RH WIND       PRES   REMARKS
NWS GREEN BAY  PTSUNNY   69  49  48 SW15      29.88F
APPLETON       PTSUNNY   70  48  46 SW14      29.88F
OSHKOSH        PTSUNNY   71  48  43 SW16G24   29.88F
FOND DU LAC    PTSUNNY   72  46  39 S18G25    29.88F
$$

WIZ022-050-052-031600-
EAST CENTRAL WISCONSIN

CITY           SKY/WX    TMP DP  RH WIND       PRES   REMARKS
STURGEON BAY   MOSUNNY   72  48  43 S18       29.90S
MANITOWOC      NOT AVBL
SHEBOYGAN      PTSUNNY   71  49  45 S13G21    29.91F
$$

LMZ563-521-522-541>543-031600-
LAKESHORE

STATION/POSITION TIME  TEMP    WIND        PRES    VSBY  WAVE
                       AIR SEA DIR/SP/G                  HT/PER
                 (UTC) (F)     (DEG/KT/KT) (MB)    (MI)  (FT/S)
SHEBOYGAN LKSHOR 1400   57     180/ 17/ 18 1013.5S
KEWAUNEE LKSHORE 1400   49     180/  9/ 11 1011.6F
NORTHPORT PIER   1400   55     130/  8/  9 1011.5S
CHAMBERS ISLAND  1400   60     190/  7/ 13 1011.9R
MENOMINEE LKSHOR 1400   65     180/ 10/ 12 1011.8S
$$



USA.gov is the U.S. government's official web portal to all federal, state and local government web resources and services.